When you browse on this site, cookies collect data to enhance your experience and personalize the content and advertising you see.
Visit our Privacy Policy to learn more. By continuing to use the site, you agree to this use of cookies and data.
  • In Portugal
  • List of Countries
  • For 7 days
  • Water Temperature
  • Weather Map
  • Weather Widgets
  • user-avatar
    Login

    Hourly Weather Soro

    Today, 1 June, Monday

    Time Temperature Precipitation Wind Pressure Humidity
    00:00 +9°C° 0 mm 2 mps 767 mmHg 82%
    01:00 +9°C° 0 mm 2 mps 767 mmHg 82%
    02:00 +9°C° 0 mm 2 mps 767 mmHg 80%
    03:00 +8°C° 0 mm 3 mps 767 mmHg 78%
    04:00 +8°C° 0 mm 3 mps 767 mmHg 76%
    05:00 +10°C° 0 mm 3 mps 767 mmHg 74%
    06:00 +11°C° 0 mm 3 mps 767 mmHg 71%
    07:00 +13°C° 0 mm 3 mps 767 mmHg 69%
    08:00 +14°C° 0 mm 3 mps 767 mmHg 65%
    09:00 +16°C° 0 mm 3 mps 767 mmHg 62%
    10:00 +18°C° 0 mm 2 mps 768 mmHg 58%
    11:00 +18°C° 0 mm 2 mps 767 mmHg 57%
    12:00 +19°C° 0 mm 2 mps 767 mmHg 56%
    13:00 +20°C° 0 mm 2 mps 767 mmHg 56%
    14:00 +20°C° 0 mm 2 mps 767 mmHg 57%
    15:00 +19°C° 0 mm 2 mps 766 mmHg 58%
    16:00 +19°C° 0 mm 2 mps 766 mmHg 58%
    17:00 +19°C° 0 mm 2 mps 766 mmHg 64%
    18:00 +18°C° 0 mm 2 mps 765 mmHg 69%
    19:00 +17°C° 0 mm 2 mps 765 mmHg 74%
    20:00 +14°C° 0 mm 3 mps 765 mmHg 72%
    21:00 +13°C° 0 mm 3 mps 765 mmHg 70%
    22:00 +12°C° 0 mm 3 mps 765 mmHg 67%
    23:00 +11°C° 0 mm 3 mps 765 mmHg 69%

    Tomorrow, 2 June, Tuesday

    Time Temperature Precipitation Wind Pressure Humidity
    00:00 +11°C° 0 mm 3 mps 764 mmHg 71%
    01:00 +12°C° 0 mm 2 mps 764 mmHg 72%
    02:00 +11°C° 0 mm 3 mps 764 mmHg 74%
    03:00 +11°C° 0 mm 3 mps 763 mmHg 76%
    04:00 +11°C° 0 mm 3 mps 763 mmHg 78%
    05:00 +12°C° 0 mm 3 mps 763 mmHg 76%
    06:00 +14°C° 0 mm 3 mps 763 mmHg 74%
    07:00 +16°C° 0 mm 3 mps 763 mmHg 72%
    08:00 +17°C° 0 mm 3 mps 762 mmHg 69%
    09:00 +18°C° 0 mm 3 mps 762 mmHg 66%
    10:00 +19°C° 0 mm 3 mps 762 mmHg 63%
    11:00 +19°C° 0 mm 3 mps 761 mmHg 62%
    12:00 +20°C° 0 mm 3 mps 761 mmHg 62%
    13:00 +20°C° 0 mm 3 mps 761 mmHg 61%
    14:00 +20°C° 0 mm 3 mps 760 mmHg 62%
    15:00 +20°C° 0 mm 3 mps 759 mmHg 63%
    16:00 +20°C° 0 mm 2 mps 759 mmHg 64%
    17:00 +19°C° 0 mm 2 mps 758 mmHg 69%
    18:00 +19°C° 0 mm 2 mps 758 mmHg 73%
    19:00 +18°C° 0 mm 2 mps 758 mmHg 78%
    20:00 +17°C° 0 mm 2 mps 757 mmHg 80%
    21:00 +15°C° 0 mm 1 mps 757 mmHg 82%
    22:00 +14°C° 0 mm 1 mps 757 mmHg 84%
    23:00 +13°C° 0 mm 1 mps 756 mmHg 84%

    Day after tomorrow, 3 June, Wednesday

    Time Temperature Precipitation Wind Pressure Humidity
    00:00 +13°C° 0 mm 2 mps 756 mmHg 85%
    01:00 +13°C° 0 mm 2 mps 756 mmHg 85%
    02:00 +12°C° 0 mm 2 mps 755 mmHg 84%
    03:00 +12°C° 0 mm 2 mps 755 mmHg 83%
    04:00 +12°C° 0 mm 2 mps 754 mmHg 83%
    05:00 +13°C° 0 mm 1 mps 754 mmHg 79%
    06:00 +14°C° 0 mm 1 mps 754 mmHg 76%
    07:00 +15°C° 0 mm 1 mps 754 mmHg 73%
    08:00 +16°C° 0 mm 1 mps 753 mmHg 71%
    09:00 +18°C° 0 mm 1 mps 753 mmHg 69%
    10:00 +19°C° 0 mm 1 mps 753 mmHg 67%
    11:00 +19°C° 0.1 mm 1 mps 753 mmHg 67%
    12:00 +19°C° 0.1 mm 2 mps 753 mmHg 66%
    13:00 +19°C° 0.1 mm 2 mps 752 mmHg 66%
    14:00 +19°C° 0.4 mm 2 mps 752 mmHg 67%
    15:00 +19°C° 0.4 mm 2 mps 752 mmHg 68%
    16:00 +18°C° 0.4 mm 2 mps 751 mmHg 70%
    17:00 +17°C° 0.1 mm 2 mps 751 mmHg 75%
    18:00 +17°C° 0.1 mm 2 mps 751 mmHg 80%
    19:00 +16°C° 0.1 mm 2 mps 750 mmHg 85%
    20:00 +13°C° 0 mm 3 mps 750 mmHg 87%
    21:00 +12°C° 0 mm 3 mps 750 mmHg 89%
    22:00 +11°C° 0 mm 4 mps 750 mmHg 91%
    23:00 +11°C° 0 mm 4 mps 749 mmHg 87%

    4 June, Thursday

    Time Temperature Precipitation Wind Pressure Humidity
    00:00 +10°C° 0 mm 4 mps 749 mmHg 83%
    01:00 +10°C° 0 mm 4 mps 749 mmHg 79%
    02:00 +10°C° 0 mm 4 mps 748 mmHg 80%
    03:00 +10°C° 0 mm 4 mps 748 mmHg 80%
    04:00 +10°C° 0 mm 4 mps 747 mmHg 80%
    05:00 +11°C° 0.1 mm 4 mps 746 mmHg 79%
    06:00 +12°C° 0.1 mm 5 mps 746 mmHg 78%
    07:00 +12°C° 0.1 mm 5 mps 745 mmHg 78%
    08:00 +11°C° 1.4 mm 6 mps 745 mmHg 81%
    09:00 +11°C° 1.4 mm 6 mps 744 mmHg 84%
    10:00 +10°C° 1.4 mm 7 mps 744 mmHg 87%
    11:00 +10°C° 2.4 mm 7 mps 743 mmHg 90%
    12:00 +10°C° 2.4 mm 7 mps 743 mmHg 93%
    13:00 +10°C° 2.4 mm 7 mps 742 mmHg 96%
    14:00 +11°C° 0.8 mm 6 mps 742 mmHg 95%
    15:00 +13°C° 0.8 mm 6 mps 742 mmHg 94%
    16:00 +13°C° 0.8 mm 5 mps 741 mmHg 93%
    17:00 +13°C° 0.1 mm 6 mps 741 mmHg 92%
    18:00 +11°C° 0.1 mm 7 mps 741 mmHg 91%
    19:00 +11°C° 0.1 mm 8 mps 740 mmHg 90%
    20:00 +10°C° 0.1 mm 8 mps 740 mmHg 89%
    21:00 +10°C° 0.1 mm 9 mps 741 mmHg 89%
    22:00 +8°C° 0.1 mm 9 mps 741 mmHg 88%
    23:00 +8°C° 0.3 mm 9 mps 741 mmHg 89%

    5 June, Friday

    Time Temperature Precipitation Wind Pressure Humidity
    00:00 +7°C° 0.3 mm 9 mps 741 mmHg 90%
    01:00 +7°C° 0.3 mm 9 mps 741 mmHg 91%
    02:00 +7°C° 0.8 mm 9 mps 741 mmHg 90%
    03:00 +6°C° 0.8 mm 9 mps 741 mmHg 89%
    04:00 +6°C° 0.8 mm 8 mps 741 mmHg 88%
    05:00 +7°C° 0 mm 8 mps 741 mmHg 85%
    06:00 +7°C° 0 mm 8 mps 742 mmHg 83%
    07:00 +9°C° 0 mm 8 mps 742 mmHg 80%
    08:00 +10°C° 0.2 mm 8 mps 742 mmHg 79%
    09:00 +11°C° 0.2 mm 8 mps 742 mmHg 78%
    10:00 +11°C° 0.2 mm 8 mps 742 mmHg 77%
    11:00 +11°C° 0.3 mm 9 mps 742 mmHg 79%
    12:00 +11°C° 0.3 mm 9 mps 742 mmHg 82%
    13:00 +11°C° 0.3 mm 10 mps 742 mmHg 84%
    14:00 +10°C° 0.1 mm 9 mps 742 mmHg 85%
    15:00 +10°C° 0.1 mm 9 mps 741 mmHg 86%
    16:00 +10°C° 0.1 mm 9 mps 741 mmHg 86%
    17:00 +10°C° 0.4 mm 9 mps 741 mmHg 88%
    18:00 +9°C° 0.4 mm 10 mps 740 mmHg 90%
    19:00 +9°C° 0.4 mm 10 mps 740 mmHg 92%
    20:00 +9°C° 0.4 mm 10 mps 739 mmHg 92%
    21:00 +9°C° 0.4 mm 10 mps 739 mmHg 91%
    22:00 +11°C° 0.4 mm 10 mps 739 mmHg 90%
    23:00 +9°C° 0.1 mm 10 mps 739 mmHg 87%

    6 June, Saturday

    Time Temperature Precipitation Wind Pressure Humidity
    00:00 +9°C° 0.1 mm 11 mps 739 mmHg 84%
    01:00 +8°C° 0.1 mm 11 mps 739 mmHg 81%
    02:00 +8°C° 0 mm 10 mps 740 mmHg 79%
    03:00 +7°C° 0 mm 9 mps 740 mmHg 78%
    04:00 +7°C° 0 mm 9 mps 741 mmHg 77%
    05:00 +8°C° 0 mm 9 mps 742 mmHg 75%
    06:00 +10°C° 0 mm 8 mps 742 mmHg 73%
    07:00 +11°C° 0 mm 8 mps 743 mmHg 70%
    08:00 +11°C° 0.2 mm 8 mps 743 mmHg 73%
    09:00 +11°C° 0.2 mm 9 mps 743 mmHg 75%
    10:00 +12°C° 0.2 mm 9 mps 744 mmHg 78%
    11:00 +12°C° 0.6 mm 9 mps 744 mmHg 78%
    12:00 +12°C° 0.6 mm 9 mps 744 mmHg 78%
    13:00 +12°C° 0.6 mm 9 mps 744 mmHg 77%
    14:00 +12°C° 0.4 mm 9 mps 744 mmHg 76%
    15:00 +12°C° 0.4 mm 9 mps 745 mmHg 74%
    16:00 +12°C° 0.4 mm 9 mps 745 mmHg 73%
    17:00 +11°C° 0.1 mm 9 mps 745 mmHg 73%
    18:00 +11°C° 0.1 mm 8 mps 745 mmHg 73%
    19:00 +10°C° 0.1 mm 8 mps 746 mmHg 73%
    20:00 +9°C° 0 mm 7 mps 746 mmHg 73%
    21:00 +8°C° 0 mm 7 mps 747 mmHg 73%
    22:00 +6°C° 0 mm 7 mps 747 mmHg 73%
    23:00 +6°C° 0.1 mm 7 mps 747 mmHg 75%
    Show more